Temp
12 12 12 12 13 13 13 13 13 14 14 15 16 16 16 16 16 16 12 13 14 17 17 19 20 21 21 20 20 19 16 16 16 17 18 17 17 17 17 16 16 15 14 14 14
12 12 12 12 12 13 13 14 14 14 14 14 15 16 16 16 16 14 14 14 16 17 18 18 19 19 17 19 17 15 13 17 16 16 16 17 17 17 16 16 15 14 14 14 14
12 12 12 12 12 13 13 13 14 14 14 14 14 15 16 16 15 15 15 15 16 17 18 18 19 20 18 17 17 17 15 15 15 15 15 16 17 17 16 15 14 14 13 12 13
11 12 12 13 13 12 14 14 14 14 14 14 15 15 16 15 19 15 15 16 17 17 18 18 19 19 16 17 18 15 16 16 16 15 15 15 14 15 15 15 13 13 13 13 12
11 11 12 13 14 14 14 14 14 14 15 15 16 16 16 14 14 15 15 16 17 18 17 18 18 18 16 16 16 15 16 15 15 15 15 15 14 14 14 13 13 14 13 11 12
11 11 12 12 13 15 14 14 14 14 15 15 16 16 16 16 14 14 15 16 17 17 17 16 17 16 16 16 16 16 15 15 15 16 16 15 14 14 15 12 13 13 12 11 12
11 11 11 12 14 15 15 15 14 14 15 15 16 16 13 14 14 15 15 15 16 17 16 16 17 17 16 15 17 15 15 15 15 16 15 14 13 13 13 13 13 12 12 12 12
11 11 11 12 13 14 15 15 15 15 16 15 16 16 13 14 14 15 16 16 16 17 17 17 17 15 15 16 16 16 16 15 16 15 15 14 12 15 13 12 12 11 10 11 11
11 11 11 11 12 14 15 15 16 16 16 16 16 16 14 14 14 14 15 15 16 17 17 17 17 14 16 15 14 15 15 17 15 15 15 14 12 14 13 12 12 11 11 11 11
11 11 11 11 13 14 15 15 16 16 16 16 16 15 14 14 14 14 15 15 15 16 16 16 14 13 11 12 14 15 15 15 16 14 14 12 11 13 13 12 11 11 11 11 11
11 11 11 12 13 14 15 15 14 13 13 12 13 14 14 14 14 14 14 15 16 15 15 15 12 12 13 13 14 15 15 14 15 14 13 13 11 12 13 13 13 12 12 13 12
11 10 11 11 13 14 14 13 14 15 12 13 13 13 13 13 14 13 14 16 17 15 16 13 12 13 14 14 14 14 14 13 12 14 13 12 12 12 12 14 14 14 13 12 13
11 11 11 11 13 13 13 14 14 15 14 14 13 14 13 13 12 12 12 15 15 14 12 13 12 13 13 13 14 12 13 11 10 11 12 12 12 15 15 15 15 14 13 13 13
10 11 11 11 12 13 13 13 14 14 10 15 14 13 14 14 14 13 12 13 13 13 11 11 12 13 13 12 12 14 11 11 11 9 13 12 12 12 14 13 13 12 11 12 13
10 10 11 11 12 12 13 13 13 13 14 15 13 13 14 14 13 13 13 14 13 13 13 12 11 12 13 11 11 12 11 11 11 10 11 12 9 11 14 14 12 12 11 12 11
10 10 10 11 12 12 13 13 12 11 14 11 13 13 14 14 14 13 13 12 13 13 10 10 10 10 10 11 11 11 11 11 11 9 6 12 11 12 13 16 15 14 12 12 12
10 10 10 11 11 12 13 12 10 11 11 12 12 13 14 13 14 14 14 13 11 11 8 10 10 10 10 11 11 11 10 7 10 8 10 11 9 12 14 15 15 14 14 13 12
9 10 10 11 11 11 12 9 9 8 10 13 14 14 14 14 14 14 13 11 12 11 5 9 11 10 9 10 11 11 10 8 13 11 10 10 12 16 15 14 15 14 14 13 11
9 8 9 11 11 11 9 6 10 10 11 13 14 13 14 14 14 14 13 9 10 10 11 8 10 9 8 9 9 11 8 10 6 2 7 11 13 15 15 15 14 14 14 12 11
8 8 9 10 11 10 7 10 9 13 13 14 14 13 12 13 13 13 12 13 11 10 9 9 10 7 8 9 9 10 10 9 6 11 11 10 12 13 16 16 14 14 13 12 10
9 8 8 9 10 7 7 8 10 13 15 13 11 13 15 14 13 14 13 12 10 9 10 6 8 8 7 6 9 8 7 10 9 8 8 8 13 10 15 16 13 12 12 12 11
8 6 6 8 6 3 5 8 12 12 12 14 14 15 15 14 15 15 14 13 10 9 11 9 8 8 8 7 8 8 11 10 8 9 5 7 11 13 13 13 13 11 11 11 10
7 6 5 6 6 4 4 10 12 11 12 12 13 15 16 15 14 13 11 10 10 11 10 9 8 8 10 8 6 8 9 10 8 7 6 9 11 11 10 11 11 11 9 8 9
6 6 5 5 4 6 5 8 11 12 12 13 13 14 14 10 12 11 9 9 9 9 10 10 5 9 12 13 8 7 6 8 8 4 8 9 11 12 8 7 9 7 5 5 4
6 6 4 5 3 7 9 9 11 9 11 12 12 13 13 9 8 9 8 8 9 9 9 9 8 4 4 8 10 8 7 6 7 9 11 12 8 13 7 8 7 6 7 4 2
6 5 5 2 8 8 9 8 12 10 10 11 12 12 12 12 13 10 9 8 10 7 8 9 9 6 6 4 6 7 7 6 7 5 6 8 10 13 14 9 5 5 3 4 4
6 5 8 7 7 8 10 8 11 12 11 12 12 12 13 12 9 8 9 10 10 8 7 8 8 8 10 4 6 9 8 8 6 6 8 9 14 13 12 12 10 10 7 5 5
Height
825 823 822 822 822 821 821 819 818 817 816 814 813 815 815 813 813 812 814 815 810 807 807 805 804 805 805 805 803 804 830 841 838 835 837 832 834 831 830 833 832 832 835 835 835
825 822 823 822 822 821 820 820 818 817 816 814 815 814 816 813 812 813 818 814 810 809 807 807 806 804 810 810 812 820 841 836 834 835 839 835 833 833 834 834 834 835 834 834 833
824 822 822 822 820 820 819 820 819 817 816 815 813 814 814 814 813 817 816 813 810 809 809 807 807 805 812 816 818 821 838 835 836 834 835 835 834 832 833 834 834 834 833 832 832
825 823 822 821 820 819 819 819 819 817 814 814 814 814 814 814 819 817 815 812 810 809 809 808 808 810 820 824 818 831 831 830 833 834 837 840 837 834 832 831 830 829 830 831 831
824 823 820 820 819 819 818 817 817 817 816 812 811 813 816 817 822 818 815 812 810 809 809 808 809 813 823 824 824 832 832 832 834 832 837 837 839 838 831 829 827 828 829 829 829
823 823 820 820 820 818 816 815 815 815 814 814 811 811 816 821 820 819 816 814 811 809 810 810 812 814 821 827 829 829 832 834 833 832 834 838 838 837 825 825 826 827 826 825 825
822 822 820 819 818 817 816 815 815 817 814 814 811 813 816 824 820 819 817 816 813 812 812 813 812 815 821 829 827 832 836 835 834 833 836 837 837 833 825 824 825 825 822 821 821
821 820 819 817 817 816 814 815 815 814 815 814 812 812 821 822 821 819 818 819 815 815 813 814 815 818 823 827 830 834 834 841 834 834 834 839 841 821 823 824 824 823 822 818 817
821 818 818 819 817 814 815 813 812 816 815 813 813 815 823 822 822 820 819 820 817 816 816 815 816 824 827 832 842 838 843 832 835 834 835 837 840 824 822 822 822 821 818 815 814
821 818 817 818 817 815 814 813 812 814 815 815 813 821 825 822 821 821 820 820 818 817 817 817 824 835 843 843 853 845 842 837 833 835 836 839 836 826 819 821 821 819 816 813 811
817 816 818 817 816 814 814 813 817 820 816 821 822 825 826 826 822 822 821 821 817 820 828 824 840 851 846 843 840 840 840 845 833 836 835 834 834 823 818 818 817 816 815 812 810
815 817 816 815 816 814 811 812 810 812 823 820 819 822 825 828 826 824 822 824 820 829 825 836 847 846 842 839 840 841 843 849 843 834 837 835 826 816 815 813 812 810 811 811 810
810 814 814 813 814 815 811 812 811 811 818 823 822 818 825 826 831 830 826 825 826 833 838 838 848 843 843 844 843 851 847 856 861 848 836 835 828 808 806 807 808 809 809 809 809
811 810 812 812 815 814 811 810 812 813 837 824 823 824 826 824 828 829 828 830 830 837 843 849 846 845 843 847 850 843 853 852 852 862 842 836 850 825 811 811 811 812 812 810 807
808 808 810 812 810 812 813 811 812 814 846 824 825 826 825 828 829 828 828 826 833 838 839 849 849 847 844 851 851 849 853 852 851 855 854 842 866 828 811 812 813 812 812 807 807
803 806 808 809 808 810 810 813 816 839 839 833 824 825 826 826 828 829 830 829 832 838 848 855 853 855 854 852 852 851 852 853 851 862 895 845 854 831 817 805 804 807 809 807 806
800 802 806 807 806 807 810 814 842 848 825 827 826 823 822 827 828 829 829 834 845 851 867 856 855 857 856 854 853 852 856 889 869 878 867 851 864 826 807 802 802 804 807 806 807
796 799 801 804 804 806 809 826 852 837 827 810 812 818 823 822 827 829 831 840 835 841 880 865 857 859 859 858 854 853 857 884 860 867 864 854 840 809 800 802 800 802 804 804 806
793 798 800 798 803 806 812 850 822 814 807 809 813 822 823 822 824 826 831 846 840 840 846 872 860 862 862 860 861 853 871 861 892 920 887 849 824 804 801 800 802 802 802 805 806
788 797 795 796 801 806 820 812 810 793 796 800 805 811 825 824 825 828 830 827 838 840 841 851 859 870 865 862 860 858 858 869 889 866 863 855 835 820 799 798 801 802 802 804 805
786 794 792 795 799 809 819 814 800 789 787 798 806 808 803 811 818 819 822 831 834 842 841 857 856 869 870 873 861 867 871 861 866 873 881 890 830 814 795 792 798 800 800 801 803
778 794 790 794 806 814 814 802 787 788 790 791 792 792 797 802 806 809 816 821 831 837 839 844 853 870 866 868 864 860 847 854 870 872 892 883 840 796 799 796 796 799 797 797 799
773 787 792 791 802 811 809 789 785 788 788 791 792 790 789 797 810 810 823 831 831 829 838 841 857 875 856 866 869 863 855 849 860 871 880 866 833 799 803 800 798 798 799 797 797
766 784 793 792 789 792 800 793 784 782 782 782 785 787 794 810 804 816 829 832 834 832 830 834 864 849 842 835 853 865 864 855 859 891 860 844 820 797 810 810 799 800 800 799 798
756 766 768 783 788 783 779 780 779 788 785 782 787 784 788 814 823 821 829 837 834 833 834 838 851 873 869 848 841 849 854 861 860 841 835 813 828 785 805 800 796 795 791 795 798
748 756 764 771 763 776 774 774 766 777 781 781 782 781 784 791 785 809 815 824 816 835 837 835 845 861 860 864 855 853 845 850 843 852 844 833 812 783 776 786 795 792 794 792 792
733 743 742 754 760 765 753 766 761 765 773 767 771 778 783 783 791 794 800 799 804 820 834 833 844 849 840 869 858 839 825 827 832 828 821 824 778 777 777 777 780 779 783 787 786
Wind_Speed
6 8 7 5 3 3 4 5 5 7 6 3 0 1 5 11 12 10 9 12 11 8 6 10 3 4 3 3 3 4 4 3 3 4 2 2 2 5 2 3 2 4 4 4 4
5 6 7 6 4 2 3 4 4 5 6 4 3 2 2 3 2 13 16 16 10 6 4 10 3 7 3 3 4 5 4 2 1 3 3 2 3 1 3 3 2 2 4 4 6
3 4 5 6 5 4 3 4 4 5 5 5 4 2 2 2 3 4 18 11 7 3 4 6 8 1 5 4 5 3 4 5 3 4 5 5 1 2 2 2 1 5 2 4 5
4 4 5 5 5 4 4 4 4 3 3 5 5 3 2 2 2 6 15 9 7 4 3 3 3 2 4 4 3 6 5 5 2 4 5 3 7 5 4 5 6 3 1 2 5
4 4 5 5 5 6 5 4 3 1 2 5 3 3 1 5 2 10 14 10 8 5 5 3 4 3 5 5 4 5 3 5 5 4 3 4 6 6 7 6 6 5 4 7 6
4 5 6 6 7 7 5 2 0 1 1 4 4 4 1 4 2 9 11 11 11 8 12 8 4 3 6 4 4 3 5 6 4 2 3 3 5 5 5 7 6 7 9 8 8
4 5 6 7 6 6 4 4 2 3 1 2 4 5 6 3 2 8 7 11 11 7 4 11 5 5 5 4 2 6 3 1 3 3 1 2 7 8 6 7 6 9 9 9 11
4 5 6 7 7 4 2 4 2 1 1 2 4 4 3 2 3 6 4 5 9 8 8 6 7 5 4 3 2 2 2 2 2 1 2 4 8 6 8 8 9 9 9 8 10
7 5 7 8 8 5 4 0 2 3 4 3 3 2 1 1 2 5 6 3 5 4 4 4 4 4 2 3 3 3 1 1 1 3 1 3 7 7 6 7 8 8 9 7 8
8 6 7 8 7 5 1 2 3 1 2 5 5 4 1 1 2 4 4 4 2 2 3 4 4 4 5 5 1 3 3 4 2 3 2 5 13 11 10 9 9 8 9 7 8
8 6 7 8 8 2 3 2 3 3 10 3 2 2 2 2 2 3 4 6 1 5 3 4 6 3 2 2 0 1 2 5 3 1 2 3 8 11 7 6 7 7 5 4 5
8 8 7 7 9 3 5 2 3 3 6 2 5 5 2 2 1 6 7 0 2 3 1 6 3 0 2 2 2 3 2 4 6 2 2 5 14 12 6 6 5 5 5 6 4
10 8 6 5 6 3 1 3 3 4 4 1 1 5 3 2 2 6 7 1 4 5 5 5 3 0 2 4 4 3 2 2 4 9 4 5 7 5 1 4 4 5 5 4 3
12 9 6 4 2 1 2 5 7 3 4 1 1 1 1 2 2 2 4 1 4 4 4 5 1 0 1 3 3 2 1 2 4 6 2 4 4 6 4 6 5 7 6 6 3
13 10 6 3 1 3 2 6 5 3 2 2 2 0 1 1 4 3 1 3 3 3 3 2 1 1 2 1 2 2 1 1 2 2 2 4 4 7 2 6 7 8 7 6 5
15 11 7 5 5 3 7 6 1 6 5 2 4 4 4 2 1 1 2 5 3 4 6 3 2 3 1 1 1 1 1 1 2 2 3 3 4 6 3 4 2 3 6 6 4
18 14 10 7 2 7 10 3 4 4 4 4 5 5 4 4 2 3 3 2 3 4 2 3 1 1 2 1 2 0 3 4 5 4 4 3 3 9 5 3 4 4 3 3 4
20 15 11 9 6 11 6 5 3 4 6 3 5 5 4 5 2 3 3 2 1 3 3 4 5 1 4 2 1 2 2 4 4 2 5 1 5 3 3 3 3 4 1 3 5
21 14 6 10 9 12 4 2 9 8 7 9 4 5 3 3 4 4 5 5 5 5 6 4 3 1 3 2 2 1 2 2 6 2 3 3 7 3 2 1 2 1 2 5 2
22 10 5 12 14 6 4 6 5 4 6 3 6 4 7 7 6 6 7 2 5 1 0 5 2 2 2 1 1 1 2 3 3 1 4 5 6 5 3 2 4 4 4 0 3
17 4 7 16 16 4 4 7 6 4 4 6 5 5 5 8 8 7 8 1 4 4 1 4 3 3 3 3 5 1 1 2 2 3 4 1 6 7 6 6 8 7 7 3 0
9 3 11 19 3 2 4 6 6 5 2 3 3 2 6 7 6 5 6 1 7 7 6 3 5 3 6 3 2 2 2 4 4 4 1 3 7 3 5 5 5 7 7 5 4
5 3 2 2 5 3 3 4 4 5 6 7 7 4 1 6 5 4 5 3 5 4 6 7 1 2 6 2 3 3 4 3 3 3 5 5 6 1 5 5 6 7 8 6 4
4 4 1 2 1 7 5 5 7 3 4 4 5 5 4 3 5 6 4 2 0 2 3 2 3 6 5 4 4 2 3 5 4 3 3 7 9 12 7 7 8 8 7 7 6
3 4 5 7 6 4 7 11 8 7 2 4 2 4 8 4 3 4 4 3 3 4 3 1 4 3 4 5 4 5 5 7 9 7 6 6 10 18 6 8 8 7 7 6 7
6 4 1 3 12 16 8 9 14 5 8 6 5 12 7 7 8 10 9 5 6 2 5 3 3 2 4 0 3 5 8 9 14 4 11 9 23 18 21 8 5 8 5 7 7
6 4 3 8 7 15 16 7 15 10 6 4 11 7 7 6 5 4 4 5 12 10 7 6 6 3 4 1 1 8 11 14 5 6 9 8 16 3 5 6 6 6 6 8 8
Wind_Direction
12 19 13 16 18 13 11 23 34 30 21 22 278 37 73 56 53 62 35 331 325 349 356 341 345 327 4 12 15 26 63 56 34 61 116 30 76 349 202 161 159 131 134 147 40
11 22 12 9 4 350 344 347 357 4 12 28 0 282 285 5 62 52 358 341 341 350 21 9 356 351 25 23 10 69 76 122 50 69 22 49 47 315 345 296 148 104 108 46 18
13 21 11 5 8 357 336 326 339 357 12 22 34 341 213 350 83 354 347 355 3 19 25 341 312 334 69 37 354 35 122 152 48 58 11 329 14 234 252 304 164 195 242 10 348
354 7 6 4 351 337 337 324 325 355 55 19 21 37 134 31 139 344 354 13 37 46 6 332 301 70 90 57 1 95 51 105 91 56 16 347 306 291 207 225 176 147 122 309 288
342 353 7 353 346 342 338 324 311 320 9 29 58 89 102 55 9 351 7 23 40 56 13 11 58 66 104 113 47 82 142 86 121 95 273 323 284 257 249 188 174 175 213 251 245
322 341 359 352 346 347 345 357 280 274 338 28 57 94 339 80 17 358 29 39 54 69 46 39 62 98 82 57 71 111 119 137 149 118 214 238 272 333 268 170 190 214 225 233 212
311 322 341 344 347 350 348 360 350 324 51 52 74 86 64 155 21 7 35 34 46 70 64 44 17 73 118 93 95 139 102 196 197 130 277 32 281 228 231 184 215 248 235 222 214
285 307 326 334 334 327 325 343 344 56 27 86 89 93 89 44 40 17 50 32 53 69 85 54 53 84 78 100 106 188 95 107 221 69 177 86 276 258 201 180 230 255 266 230 219
276 299 317 323 331 333 333 254 106 90 54 111 79 76 117 67 10 3 22 342 6 41 57 49 67 112 78 91 24 4 246 81 208 142 230 139 275 273 225 208 239 258 273 252 227
271 290 307 316 323 336 345 130 96 110 65 87 77 33 251 135 331 345 345 340 7 322 25 50 56 72 30 46 166 310 359 322 299 196 193 259 261 274 277 207 234 251 265 274 235
254 275 296 315 321 303 158 160 61 334 47 97 77 96 47 344 10 10 1 330 274 45 67 20 67 72 54 49 9 347 354 296 303 113 314 248 280 276 286 214 237 266 284 315 328
247 266 285 314 321 266 174 234 212 165 102 87 126 98 56 342 313 353 359 20 32 86 352 32 80 272 325 21 55 33 334 314 283 333 329 294 282 267 239 236 204 235 284 291 302
226 244 272 306 313 245 221 228 183 157 90 67 350 99 157 89 39 315 359 359 93 56 16 116 154 217 349 42 38 49 113 27 260 318 268 298 302 322 105 191 217 238 235 265 240
231 230 249 302 278 213 228 207 175 212 74 239 8 34 124 109 56 297 351 312 34 134 102 90 262 321 48 87 354 206 16 337 314 8 316 33 281 310 232 235 248 252 238 233 173
223 225 229 239 190 200 215 170 180 248 43 125 139 149 105 131 133 12 22 16 85 95 110 191 117 56 79 127 346 195 288 257 295 327 1 9 67 271 85 269 242 247 231 229 195
214 219 216 208 201 211 161 158 274 49 251 182 142 157 120 170 86 133 35 47 127 79 34 94 351 44 77 313 281 310 245 277 2 60 33 237 121 285 224 223 200 221 242 228 194
207 204 204 191 193 177 159 94 51 139 334 204 185 161 178 153 156 196 143 87 145 79 342 353 44 58 12 12 303 318 55 337 353 11 207 156 45 246 286 245 171 168 228 225 182
201 198 200 208 193 164 149 61 107 238 210 183 140 126 179 153 151 164 129 153 312 96 97 137 319 10 344 57 199 39 125 144 228 302 274 294 237 250 177 150 112 97 356 291 307
187 184 202 198 190 172 89 114 198 198 167 148 74 112 200 217 152 155 190 173 195 175 141 118 296 347 33 355 63 249 48 146 103 45 30 252 284 332 236 237 140 150 226 305 89
165 174 202 180 171 146 89 229 210 189 133 154 153 163 166 189 159 170 183 197 173 276 313 190 52 299 333 335 2 353 182 65 10 47 303 295 286 235 317 285 207 208 248 214 29
155 143 179 166 147 70 185 224 215 222 146 151 182 154 172 169 176 180 181 336 151 146 57 133 102 297 16 213 188 127 56 76 112 134 168 288 275 210 206 180 189 190 187 197 264
155 151 168 161 118 174 168 194 206 160 117 145 135 139 160 154 155 163 154 71 147 150 147 191 134 166 226 289 339 310 198 170 125 255 171 145 274 223 217 182 170 186 196 184 178
139 107 162 205 175 210 270 220 213 143 181 171 174 186 26 154 111 121 102 340 134 137 158 188 50 19 337 356 357 246 214 177 116 80 209 142 262 278 259 261 253 238 237 214 202
122 135 63 257 356 148 156 200 185 218 170 167 142 119 113 72 23 141 124 178 54 127 109 137 103 165 196 192 130 223 231 194 149 130 203 225 270 272 271 251 261 256 251 237 230
154 192 190 189 227 187 178 174 169 180 238 178 33 196 158 129 75 119 107 140 27 140 68 155 167 155 250 236 216 223 196 188 202 208 187 252 226 263 235 232 235 245 257 226 224
144 152 165 144 149 186 185 207 197 168 148 208 182 198 174 158 182 185 144 183 185 140 172 207 117 117 291 338 190 260 233 211 223 234 266 288 283 270 270 254 263 253 253 242 234
128 130 152 157 163 178 208 172 199 166 222 184 180 133 175 187 114 95 48 112 151 147 171 143 134 132 260 63 64 295 229 203 197 206 190 206 243 195 254 256 259 276 215 234 230